Location: Goldbach
(47.7833°N, 9.1500°E)
Time: 08:09:36
(UTC+00:00)

Daily predictions for brighter satellites

Satellite Brightness Start Highest point End
(mag) Time Altitude Azimuth Time Altitude Azimuth Time Altitude Azimuth
BREEZE-M DEB (TANK) 4.5 19:22:18 10° W 19:25:12 24° SSW 19:31:29 10° SSE
Spot 2 Rocket 4.1 19:24:07 10° SE 19:28:47 41° ENE 19:33:29 10° N
SL-16 R/B 3.0 19:23:44 10° NNW 19:29:02 38° NE 19:34:18 10° ESE
Cosmos 1607 4.0 19:22:54 10° SSW 19:29:03 86° SE 19:35:22 10° NE
ERS-1 Rocket 3.0 19:26:49 10° SSE 19:31:49 85° ENE 19:36:52 10° NNW
Meteor 1-27 4.2 19:27:53 10° S 19:33:30 76° E 19:39:05 10° NNE
IRAS Rocket 4.5 19:29:04 10° S 19:34:31 74° WSW 19:40:03 10° NNW
MetOp-B 4.2 19:33:58 10° SSE 19:39:19 85° ENE 19:44:42 10° NNW
Cosmos 1459 Rocket 4.5 19:35:08 10° SSW 19:41:18 67° W 19:47:24 10° N
Cosmos 2061 Rocket 4.2 19:36:45 10° SSE 19:42:46 55° E 19:48:53 10° NNE
Cosmos 1980 Rocket 3.2 19:37:53 10° NW 19:43:18 45° WSW 19:48:39 10° S
CZ-4 R/B 2.3 19:40:46 10° S 19:44:13 42° W 19:47:42 10° NNW
USA 186 2.5 19:42:50 11° SE 19:45:09 28° ENE 19:47:35 10° N
Cosmos 2228 2.8 19:41:19 10° S 19:45:24 72° E 19:49:30 10° NNE
COSMOS 2406 3.5 19:40:31 10° S 19:45:58 47° ESE 19:51:26 10° NE
Cosmos 2084 Rocket 4.2 19:44:08 10° NW 19:48:10 46° SW 19:52:13 10° SSE
SL-08 R/B 3.4 19:43:38 10° NNE 19:48:23 57° E 19:53:01 10° S
ISS -2.6 19:46:21 10° W 19:49:34 44° N 19:52:48 10° ENE
Cosmos 1743 3.3 19:46:50 10° NNW 19:49:43 41° W 19:52:34 10° SSW
Cosmos 1461 3.0 19:46:30 10° S 19:49:58 39° ESE 19:53:25 10° NE
Cosmos 1455 Rocket 3.5 19:45:48 10° SSW 19:50:10 66° W 19:54:33 10° N
Cosmos 1992 Rocket 4.0 19:45:08 10° S 19:50:16 63° ESE 19:55:25 10° NNE
Cosmos 1802 Rocket 4.2 19:44:57 10° SSW 19:51:06 74° W 19:57:16 10° N
Cosmos 1892 Rocket 4.2 19:47:43 10° NNW 19:51:57 56° W 19:56:08 10° S
SKYMED 3 4.3 19:48:16 10° NNE 19:52:15 76° ESE 19:56:13 10° S
Terra 2.1 19:47:35 10° S 19:52:15 71° WSW 19:56:58 10° NNW
Okean O Rocket 1.7 19:52:38 10° SSE 19:56:52 62° ENE 20:01:08 10° N
Cosmos 2333 Rocket 2.6 19:53:51 10° NNW 19:59:28 55° ENE 20:04:29 13° SE
NOSS 3-3 (A) 3.8 19:58:46 10° SW 20:03:57 84° NW 20:10:12 10° NE
Cosmos 1544 Rocket 3.8 19:59:47 10° SSE 20:03:57 48° E 20:08:07 10° NNE
Cosmos 1437 Rocket 3.1 20:03:17 11° SSE 20:06:25 38° E 20:09:47 10° NNE
Cosmos 2360 Rocket 3.0 20:04:05 10° NNW 20:09:27 41° NE 20:13:59 14° ESE
Helios 1A Rocket 3.6 20:06:41 10° N 20:09:40 41° WNW 20:12:38 10° SW
CZ-4B R/B 3.9 20:07:04 10° S 20:12:37 56° W 20:18:08 10° NNW
Cosmos 2233 Rocket 4.2 20:08:30 10° SSW 20:14:41 77° W 20:20:52 10° N
Okean-O 2.7 20:14:53 11° S 20:19:02 81° WSW 20:23:26 10° NNW
Cosmos 1486 Rocket 4.4 20:14:56 10° NNW 20:20:05 51° ENE 20:23:55 18° SE
Cosmos 909 Rocket 4.2 20:14:51 10° SW 20:21:10 78° NW 20:27:44 10° NE
Cosmos 1758 Rocket 3.5 20:17:37 10° N 20:22:03 89° E 20:25:51 14° S
Cosmos 2219 Rocket 3.3 20:16:58 10° NNW 20:22:06 34° NE 20:26:24 14° ESE
CZ-2C R/B 3.7 20:21:09 17° E 20:22:06 19° ENE 20:24:12 10° NNE
DNEPR-1 R/B 4.4 20:24:27 10° NW 20:29:58 78° NE 20:34:56 19° SE
USA 245 4.3 20:25:40 15° SSE 20:30:32 76° ENE 20:36:03 10° N
IRS-1C Rocket 4.4 20:27:08 18° SE 20:30:56 56° ENE 20:36:06 10° N
Nadezhda 4 Rocket 4.4 20:25:25 10° N 20:31:18 46° ENE 20:35:27 19° SE
Meteor 1-25 Rocket 4.2 20:25:51 10° N 20:31:30 71° ENE 20:35:42 18° SSE
Cosmos 1825 Rocket 4.4 20:30:37 10° N 20:34:39 36° ENE 20:36:52 22° SE
Cosmos 1805 3.2 20:32:06 10° N 20:35:15 45° ENE 20:36:34 28° SE
Cosmos 220 Rocket 3.7 20:32:20 10° SSW 20:36:21 69° ESE 20:40:26 10° NNE
NOSS 3-3 (C) 4.2 20:31:20 10° SW 20:36:35 64° NW 20:42:56 10° NE
Cosmos 2322 Rocket 2.3 20:36:26 10° NNW 20:42:07 72° ENE 20:45:49 22° SE
USA 306 4.2 20:43:52 10° NW 20:45:43 16° NNW 20:47:08 10° NNE
Cosmos 1602 Rocket 3.5 20:41:40 10° N 20:46:00 90° NNE 20:48:44 23° S
Cosmos 2082 Rocket 3.9 20:41:00 10° WSW 20:46:14 36° NW 20:51:30 10° NNE
NOSS 3-4 (A) 3.8 20:42:52 10° NW 20:49:36 89° NE 20:55:06 22° SE
NOSS 3-4 (C) 3.8 20:43:30 10° NW 20:50:16 88° NE 20:55:45 22° SE
Cosmos 1707 4.4 20:52:04 12° ENE 20:52:04 12° ENE 20:52:45 10° ENE
DELTA 2 R/B (1) 4.4 20:46:39 10° WSW 20:51:34 32° S 20:53:40 25° SSE
CZ-4B R/B 2.5 20:49:58 28° S 20:51:38 75° WSW 20:55:07 10° NNW
Cosmos 2151 3.7 20:52:14 10° NNW 20:56:12 48° W 20:59:05 17° SSW
Cosmos 2098 Rocket 3.0 20:53:24 20° S 20:56:41 77° E 21:00:49 10° NNE
Cosmos 1076 Rocket 4.0 20:54:37 10° N 20:58:43 45° ENE 21:00:20 30° SE
Cosmos 44 4.3 20:54:09 10° NNW 20:59:18 43° NE 21:02:45 19° ESE
Ariane Rocket 3.0 20:59:01 24° S 21:02:10 82° WSW 21:07:16 10° NNW
Cosmos 2278 4.2 21:03:38 10° NW 21:09:13 55° WSW 21:12:37 23° S
SPOT 3 Rocket 4.1 21:09:24 20° S 21:12:51 53° W 21:17:53 10° NNW
SL-16 R/B 3.1 21:07:52 10° NW 21:13:08 40° WSW 21:16:43 19° SSW
COSMOS 2428 4.0 21:08:57 10° NNW 21:13:57 30° NE 21:17:37 16° E
Meteor 1-5 Rocket 4.4 21:08:15 10° NNW 21:14:01 77° W 21:17:38 25° S
Cosmos 1763 Rocket 3.5 21:10:53 24° S 21:14:04 64° ESE 21:19:18 10° NNE
USA 186 4.2 21:13:22 10° WSW 21:14:36 12° W 21:15:50 10° WNW
USA 290 2.3 21:18:07 37° SW 21:19:12 71° WNW 21:22:20 10° NNE
Cosmos 1606 Rocket 3.5 21:17:14 27° SSW 21:19:34 81° W 21:23:55 10° N
Cosmos 1464 Rocket 4.0 21:18:41 17° SSW 21:23:30 78° W 21:29:44 10° N
Cosmos 990 Rocket 3.9 21:18:39 10° NNW 21:23:50 81° ENE 21:26:04 35° SSE
Helios 1B rocket 3.5 21:24:22 23° E 21:24:55 24° ENE 21:27:49 10° N
CZ-4B R/B 4.1 21:23:15 23° SSW 21:25:53 47° W 21:30:35 10° NNW
ISS -2.9 21:23:28 10° WNW 21:26:45 49° NNE 21:28:15 27° ENE
Okean 1 3.1 21:25:54 41° SSW 21:27:01 75° W 21:30:37 10° N
Cosmos 1726 Rocket 3.2 21:25:50 39° S 21:27:15 89° ESE 21:31:20 10° N
BREEZE-M DEB (TANK) 2.1 21:26:18 10° W 21:28:12 43° NW 21:28:12 43° NW
Okean O Rocket 4.1 21:31:03 10° SW 21:33:28 15° W 21:35:53 10° NW
Cosmos 1536 3.0 21:33:01 10° N 21:36:36 47° ENE 21:36:59 45° E
Cosmos-2242 2.9 21:37:47 51° SSE 21:38:36 65° E 21:42:41 10° NNE
Cosmos 1092 Rocket 4.0 21:36:23 10° N 21:42:34 76° E 21:45:21 35° SSE
Cosmos 2333 Rocket 3.7 21:38:42 10° NW 21:43:25 27° WSW 21:46:30 17° SSW
KORONAS-FOTON 4.1 21:43:53 42° ENE 21:43:53 42° ENE 21:46:47 10° NNE
Cosmos 2297 Rocket 3.8 21:46:14 18° E 21:46:19 18° E 21:49:57 10° ENE
Cosmos 841 Rocket 4.3 21:47:26 31° ESE 21:47:59 32° E 21:52:34 10° NE
Cosmos 1833 4.3 21:44:13 15° SW 21:48:56 75° WNW 21:54:36 10° NNE
CZ-2C R/B 4.2 21:52:45 18° W 21:52:47 18° W 21:54:46 10° NW
Cosmos 2360 Rocket 3.1 21:48:12 10° NW 21:53:23 38° WSW 21:55:44 26° SSW
Cosmos 1842 3.8 21:56:49 35° NE 21:56:49 35° NE 21:59:05 10° NNE
Cosmos 1766 2.9 21:53:42 10° NNW 21:56:45 68° WNW 21:56:45 68° WNW
Cosmos 2322 3.9 21:52:22 10° NNW 21:58:02 62° ENE 22:00:18 36° SE
Cosmos 1975 3.7 21:55:49 10° N 21:59:09 32° ENE 21:59:14 32° ENE
Meteor 2-6 Rocket 4.4 21:58:28 40° SSE 22:00:31 62° E 22:06:24 10° NNE
Cosmos 2034 Rocket 4.4 21:58:36 22° SSW 22:02:45 62° WNW 22:09:01 10° N
Cosmos 2221 3.2 22:03:18 36° E 22:03:20 36° E 22:07:11 10° NNE
Cosmos 372 Rocket 3.9 21:58:51 10° NNW 22:03:59 81° ENE 22:05:24 48° SSE
Cosmos 1271 Rocket 3.1 22:06:21 44° ENE 22:06:21 44° ENE 22:09:03 10° NNE
Cosmos 2219 Rocket 2.7 22:00:47 10° NW 22:06:12 47° WSW 22:08:05 35° SSW
SL-08 ROCKET BODY 4.4 22:05:10 10° N 22:11:22 76° E 22:13:38 41° SSE
Cosmos 540 Rocket 4.2 22:07:44 18° SW 22:11:24 50° WNW 22:16:25 10° NNE
Helios 1A 3.1 22:13:32 10° N 22:17:25 61° WNW 22:18:07 50° WSW
Cosmos 2279 Rocket 3.9 22:16:40 42° S 22:18:56 76° E 22:25:13 10° NNE
RESURS DK-1 2.1 22:16:35 10° NNW 22:20:35 79° ENE 22:20:45 76° E
Aureole 1 Rocket 4.2 22:16:14 10° NNW 22:22:04 60° WSW 22:24:34 38° S
Cosmos 1707 3.9 22:23:33 25° WNW 22:23:33 25° WNW 22:25:43 10° NNW
Cosmos 1634 Rocket 4.1 22:22:33 34° SSW 22:25:21 72° W 22:31:35 10° N
Cosmos 2322 Rocket 4.0 22:21:32 10° NW 22:25:32 20° W 22:27:37 17° SW
Meteor 1-19 Rocket 4.4 22:24:37 45° SSE 22:26:10 60° E 22:32:01 10° NNE
Cosmos 1937 Rocket 3.5 22:23:45 10° NNW 22:28:54 73° ENE 22:30:08 51° SE
TSX-5 4.3 22:27:35 10° NW 22:29:55 40° WNW 22:29:55 40° WNW
Cosmos 2058 Rocket 4.0 22:30:59 32° WSW 22:32:16 41° WNW 22:36:23 10° N
Cosmos 468 Rocket 4.4 22:30:13 29° SW 22:32:46 59° WNW 22:37:58 10° NNE
SL-16 R/B 4.4 22:28:58 10° N 22:33:00 19° NE 22:37:00 10° E
Geosat 4.4 22:28:05 10° NNE 22:33:01 61° NW 22:35:38 27° SW
CZ-2C R/B 3.5 22:29:12 10° NNE 22:33:42 79° ESE 22:34:15 67° SSE
GP-B 3.8 22:31:48 10° NNE 22:35:56 39° E 22:36:11 39° E
BREEZE-M DEB 4.5 22:32:45 10° WSW 22:37:36 74° S 22:52:41 10° E
Meteor 2-9 Rocket 4.1 22:34:36 10° NNW 22:40:02 81° W 22:41:24 52° S
Cosmos 44 4.1 22:35:28 10° NW 22:40:26 39° WSW 22:41:01 38° SW
CZ-2C R/B 3.8 22:39:09 25° ESE 22:41:11 34° ENE 22:45:49 10° N
Lacrosse 4 Rocket 3.1 22:42:43 21° E 22:42:43 21° E 22:44:45 10° NE
Cosmos 2237 Rocket 2.6 22:39:21 10° NNW 22:44:58 56° ENE 22:47:09 35° ESE
SeaSat 1 4.5 22:43:00 10° E 22:46:47 23° NE 22:50:34 10° N
USA 234 3.5 22:42:03 10° ENE 22:48:21 48° SE 22:49:36 43° SSE
Cosmos 2266 Rocket 3.9 22:42:32 10° N 22:48:36 76° E 22:50:27 47° SSE
Cosmos 1980 3.9 22:43:36 10° NNW 22:49:15 65° ENE 22:51:12 40° SE
Cosmos 1470 3.6 22:46:50 10° NNW 22:49:19 35° WNW 22:49:19 35° WNW
ARIANE 5 R/B 2.6 22:52:41 64° SW 22:53:03 67° WSW 22:57:30 10° NNW
Intercosmos 24 4.3 22:50:00 10° N 22:53:29 45° ENE 22:53:29 45° ENE
ALOS 2 2.5 22:54:46 72° SSW 22:55:06 77° WSW 22:59:30 10° NNW
Cosmos 2227 Rocket 3.4 22:55:49 26° ESE 22:56:17 26° ESE 23:00:55 10° NE
Helios 1B rocket 3.8 22:58:18 24° W 22:58:18 24° W 23:00:47 10° NW
COSMOS 2428 2.9 22:52:56 10° NW 22:58:30 55° WSW 22:59:34 48° SSW
Meteor 2-4 Rocket 4.2 23:00:13 40° ESE 23:01:14 45° E 23:06:28 10° NNE
BlueWalker 3 4.2 23:05:22 14° ENE 23:05:22 14° ENE 23:05:59 10° ENE
ISS -1.4 23:00:19 10° WNW 23:01:11 17° WNW 23:01:11 17° WNW
Cosmos 1898 Rocket 4.0 22:58:58 10° NW 23:03:53 44° WSW 23:04:33 42° SW
Cosmos 2263 Rocket 3.8 23:03:56 19° ESE 23:04:27 19° E 23:08:18 10° NE
CZ-2C R/B 3.5 23:02:22 10° NNE 23:08:05 61° E 23:09:26 48° SSE
Meteor 1-11 Rocket 3.7 23:03:17 10° NNW 23:08:55 73° W 23:10:10 53° SSW
Cosmos 1766 Rocket 3.7 23:05:35 10° N 23:09:49 57° ENE 23:10:08 55° E
SAR-Lupe-2 4.3 23:10:57 44° NW 23:10:57 44° NW 23:13:27 10° NNW
Meteor 1-10 Rocket 4.4 23:11:29 46° SSW 23:13:18 74° WNW 23:19:16 10° N
Cosmos 1238 Rocket 3.1 23:14:04 59° E 23:14:04 59° E 23:18:16 10° NNE
PSLV R/B 3.6 23:12:31 10° N 23:16:48 68° WNW 23:17:16 62° WSW
Cosmos 1655 Rocket 4.1 23:15:52 10° N 23:22:06 70° E 23:24:15 42° SSE
Cosmos 1814 Rocket 4.4 23:21:59 45° SE 23:22:33 47° ESE 23:27:33 10° NNE
Meteor 1-27 Rocket 3.7 23:25:49 52° SSW 23:27:22 85° W 23:33:08 10° N
Alouette 2 Rocket 3.7 23:23:48 10° N 23:27:40 72° ENE 23:28:18 61° SE
Cosmos 2297 Rocket 2.2 23:27:59 48° SW 23:29:38 79° WNW 23:35:19 10° NNE
NOSS 0 Rocket 4.3 23:23:55 10° NW 23:29:43 44° WSW 23:30:48 41° SW
Meteor 2-10 Rocket 4.0 23:24:53 10° N 23:30:24 62° ENE 23:32:13 41° SE
SL-14 R/B 4.3 23:39:49 35° E 23:39:49 35° E 23:43:07 10° NNE
Cosmos 2221 4.2 23:39:35 21° W 23:40:27 22° WNW 23:43:48 10° NNW
Cosmos 158 Rocket 4.0 23:39:40 58° S 23:40:40 75° ESE 23:46:01 10° NNE
CZ-4C R/B 4.2 23:39:10 10° NNE 23:41:47 34° ENE 23:41:47 34° ENE
MetOp-A 4.0 23:42:38 52° WSW 23:43:05 54° W 23:47:41 10° NNW
ACS3 Solar Sail 2.4 23:38:33 10° NNE 23:44:15 44° E 23:46:10 34° SE
Landsat 5 3.4 23:44:27 10° NNE 23:48:27 68° E 23:48:27 68° E
